| time (UTC) | temp F | wind direction | speed knots | gust knots | rain 1hr in | rain 24hr in | rain mn in | humidity % | barometer mb |
| 20260504060147 | 44 | 168 | 0.0 | 0.0 | 0.00 | 0.00 | 0.00 | 70 | 1016.7 |
| 20260504050146 | 45 | 168 | 0.0 | 0.0 | 0.00 | 0.00 | 0.00 | 69 | 1016.7 |
| 20260504045146 | 45 | 168 | 0.0 | 0.0 | 0.00 | 0.00 | 0.00 | 68 | 1016.6 |
| 20260504044146 | 45 | 168 | 0.0 | 0.0 | 0.00 | 0.00 | 0.00 | 67 | 1016.6 |
| 20260504043146 | 45 | 168 | 0.0 | 0.0 | 0.00 | 0.00 | 0.00 | 66 | 1016.6 |
| 20260504042146 | 45 | 168 | 0.0 | 0.0 | 0.00 | 0.00 | 0.00 | 64 | 1016.6 |
| 20260504041146 | 46 | 168 | 0.0 | 0.0 | 0.00 | 0.00 | 0.00 | 65 | 1016.5 |
| 20260504040146 | 46 | 168 | 0.0 | 0.0 | 0.00 | 0.00 | 0.00 | 65 | 1016.1 |
| 20260504035145 | 46 | 168 | 0.0 | 0.0 | 0.00 | 0.00 | 0.00 | 65 | 1016.1 |
| 20260504034145 | 46 | 168 | 0.0 | 0.0 | 0.00 | 0.00 | 0.00 | 65 | 1016.2 |
| 20260504032145 | 47 | 168 | 0.0 | 0.0 | 0.00 | 0.00 | 0.00 | 63 | 1016.1 |
| 20260504031145 | 47 | 168 | 0.0 | 0.0 | 0.00 | 0.00 | 0.00 | 63 | 1015.9 |
| 20260504025145 | 47 | 168 | 0.0 | 0.0 | 0.00 | 0.00 | 0.00 | 61 | 1016.1 |
| 20260504024145 | 48 | 168 | 0.0 | 0.0 | 0.00 | 0.00 | 0.00 | 60 | 1016.0 |
| 20260504023145 | 48 | 168 | 0.0 | 0.0 | 0.00 | 0.00 | 0.00 | 60 | 1016.0 |
| 20260504021145 | 49 | 168 | 0.0 | 0.0 | 0.00 | 0.00 | 0.00 | 56 | 1015.9 |
| 20260504015144 | 50 | 168 | 0.0 | 0.0 | 0.00 | 0.00 | 0.00 | 56 | 1015.9 |
| 20260504014144 | 50 | 168 | 0.0 | 0.0 | 0.00 | 0.00 | 0.00 | 55 | 1015.9 |
| 20260504013144 | 51 | 168 | 0.0 | 0.0 | 0.00 | 0.00 | 0.00 | 52 | 1015.9 |
| 20260504012144 | 52 | 168 | 0.0 | 0.0 | 0.00 | 0.00 | 0.00 | 50 | 1015.8 |
| 20260504011144 | 53 | 168 | 0.0 | 0.0 | 0.00 | 0.00 | 0.00 | 47 | 1015.8 |
| 20260504005144 | 54 | 168 | 0.0 | 0.0 | 0.00 | 0.00 | 0.00 | 44 | 1015.5 |
| 20260504003143 | 55 | 168 | 0.0 | 0.0 | 0.00 | 0.00 | 0.00 | 41 | 1015.4 |
| 20260504002143 | 57 | 168 | 0.0 | 0.0 | 0.00 | 0.00 | 0.00 | 39 | 1015.3 |
| 20260504001143 | 59 | 168 | 0.0 | 0.9 | 0.00 | 0.00 | 0.00 | 34 | 1015.2 |
| 20260504000143 | 59 | 168 | 0.0 | 0.0 | 0.00 | 0.00 | 0.00 | 32 | 1015.1 |
| 20260503235143 | 60 | 168 | 0.0 | 0.0 | 0.00 | 0.00 | 0.00 | 31 | 1015.0 |
| 20260503234143 | 60 | 247 | 0.0 | 0.9 | 0.00 | 0.00 | 0.00 | 29 | 1014.9 |
| 20260503233143 | 60 | 247 | 0.9 | 5.2 | 0.00 | 0.00 | 0.00 | 26 | 1014.7 |
| 20260503232142 | 61 | 261 | 3.5 | 3.5 | 0.00 | 0.00 | 0.00 | 27 | 1014.6 |
| 20260503231142 | 61 | 209 | 2.6 | 2.6 | 0.00 | 0.00 | 0.00 | 26 | 1014.6 |
| 20260503225142 | 62 | 340 | 0.9 | 7.8 | 0.00 | 0.00 | 0.00 | 25 | 1014.7 |
| 20260503224142 | 62 | 217 | 0.0 | 8.7 | 0.00 | 0.00 | 0.00 | 25 | 1014.7 |
| 20260503223142 | 62 | 240 | 0.0 | 8.7 | 0.00 | 0.00 | 0.00 | 24 | 1014.6 |
| 20260503222142 | 62 | 53 | 0.0 | 4.3 | 0.00 | 0.00 | 0.00 | 24 | 1014.7 |
| 20260503221142 | 63 | 273 | 0.9 | 7.0 | 0.00 | 0.00 | 0.00 | 24 | 1014.6 |
| 20260503220142 | 63 | 60 | 0.0 | 8.7 | 0.00 | 0.00 | 0.00 | 22 | 1014.7 |
| 20260503215142 | 64 | 239 | 1.7 | 3.5 | 0.00 | 0.00 | 0.00 | 22 | 1014.7 |
| 20260503213141 | 64 | 234 | 1.7 | 9.6 | 0.00 | 0.00 | 0.00 | 20 | 1014.7 |
| 20260503212141 | 64 | 238 | 2.6 | 7.8 | 0.00 | 0.00 | 0.00 | 21 | 1014.7 |
| 20260503211141 | 64 | 243 | 1.7 | 6.1 | 0.00 | 0.00 | 0.00 | 21 | 1014.7 |
| 20260503210141 | 64 | 120 | 1.7 | 7.8 | 0.00 | 0.00 | 0.00 | 22 | 1014.6 |
| 20260503205141 | 64 | 242 | 3.5 | 11.3 | 0.00 | 0.00 | 0.00 | 20 | 1014.6 |
| 20260503203141 | 65 | 190 | 3.5 | 11.3 | 0.00 | 0.00 | 0.00 | 21 | 1014.8 |
| 20260503202141 | 64 | 204 | 0.9 | 5.2 | 0.00 | 0.00 | 0.00 | 22 | 1014.8 |
| 20260503200140 | 63 | 57 | 0.0 | 13.9 | 0.00 | 0.00 | 0.00 | 24 | 1015.1 |
| 20260503195140 | 63 | 186 | 7.0 | 9.6 | 0.00 | 0.00 | 0.00 | 23 | 1015.3 |
| 20260503194140 | 63 | 298 | 0.9 | 7.8 | 0.00 | 0.00 | 0.00 | 22 | 1015.6 |
| 20260503193140 | 63 | 212 | 4.3 | 8.7 | 0.00 | 0.00 | 0.00 | 22 | 1015.6 |
| 20260503192140 | 62 | 51 | 0.9 | 8.7 | 0.00 | 0.00 | 0.00 | 26 | 1015.7 |
| 20260503191140 | 62 | 313 | 0.9 | 4.3 | 0.00 | 0.00 | 0.00 | 26 | 1015.8 |
| 20260503190140 | 62 | 284 | 0.0 | 5.2 | 0.00 | 0.00 | 0.00 | 24 | 1015.8 |
| 20260503185140 | 61 | 82 | 2.6 | 8.7 | 0.00 | 0.00 | 0.00 | 25 | 1016.1 |
| 20260503184140 | 61 | 238 | 7.8 | 11.3 | 0.00 | 0.00 | 0.00 | 26 | 1016.1 |
| 20260503182140 | 60 | 242 | 1.7 | 8.7 | 0.00 | 0.00 | 0.00 | 26 | 1016.4 |
| 20260503180139 | 59 | 249 | 3.5 | 7.8 | 0.00 | 0.00 | 0.00 | 27 | 1016.4 |
| 20260503175139 | 59 | 55 | 0.9 | 6.1 | 0.00 | 0.00 | 0.00 | 28 | 1016.3 |
| 20260503174139 | 59 | 92 | 0.9 | 7.8 | 0.00 | 0.00 | 0.00 | 27 | 1016.5 |
| 20260503173139 | 58 | 296 | 1.7 | 5.2 | 0.00 | 0.00 | 0.00 | 28 | 1016.4 |
| 20260503171139 | 58 | 138 | 0.0 | 9.6 | 0.00 | 0.00 | 0.00 | 27 | 1016.5 |
| 20260503170138 | 57 | 217 | 0.9 | 10.4 | 0.00 | 0.00 | 0.00 | 27 | 1016.6 |
| 20260503160138 | 56 | 226 | 0.0 | 14.8 | 0.00 | 0.00 | 0.00 | 28 | 1017.0 |
| 20260503150137 | 53 | 103 | 0.9 | 6.1 | 0.00 | 0.00 | 0.00 | 32 | 1017.0 |
| 20260503140137 | 51 | 53 | 1.7 | 5.2 | 0.00 | 0.00 | 0.00 | 39 | 1017.4 |
| 20260503131136 | 49 | 209 | 2.6 | 10.4 | 0.00 | 0.00 | 0.00 | 43 | 1017.3 |
| 20260503130136 | 49 | 238 | 7.0 | 7.0 | 0.00 | 0.00 | 0.00 | 45 | 1017.2 |
| 20260503120135 | 45 | 250 | 0.9 | 6.1 | 0.00 | 0.00 | 0.00 | 52 | 1017.0 |
| 20260503110135 | 42 | 209 | 0.0 | 4.3 | 0.00 | 0.00 | 0.00 | 62 | 1016.1 |
| 20260503100134 | 42 | 85 | 0.0 | 3.5 | 0.00 | 0.00 | 0.00 | 63 | 1015.3 |
| 20260503090133 | 42 | 291 | 0.0 | 3.5 | 0.00 | 0.00 | 0.00 | 63 | 1014.9 |
| 20260503081133 | 43 | 194 | 0.0 | 1.7 | 0.00 | 0.00 | 0.00 | 64 | 1014.5 |
| 20260503080133 | 43 | 202 | 0.0 | 1.7 | 0.00 | 0.00 | 0.00 | 63 | 1014.3 |
| 20260503072133 | 44 | 239 | 2.6 | 3.5 | 0.00 | 0.00 | 0.00 | 62 | 1014.2 |
| 20260503071132 | 44 | 199 | 0.9 | 1.7 | 0.00 | 0.00 | 0.00 | 61 | 1014.0 |